Regional Weather Roundup
Issued by NWS Northern Indiana

Home | Current Version | Previous Version | Graphics & Text | Print | Product List | Glossary On
Versions: 1 2 3 4 5 6 7 8 9 10 11 12 13 14 15 16 17 18 19 20 21 22 23 24 25 26 27 28 29 30 31 32 33 34 35 36 37 38 39 40 41 42 43 44 45 46 47 48 49 50
000
ASUS43 KIWX 021500
RWRIWX

KIWX WEATHER ROUNDUP
NATIONAL WEATHER SERVICE NORTHERN INDIANA
1100 AM EDT TUE SEP 02 2014

NOTE: "FAIR" INDICATES FEW OR NO CLOUDS BELOW 12,000 FEET WITH NO
SIGNIFICANT WEATHER AND/OR OBSTRUCTIONS TO VISIBILITY.

* THESE STATIONS ARE NOT UNDER NWS QUALITY CONTROL. THEY ALSO MAY NOT
  REPORT WEATHER SUCH AS PRECIPITATION OR FOG.

INZ001>027-021600-
NORTHERN INDIANA

CITY           SKY/WX    TMP DP  RH WIND       PRES   REMARKS
GARY*          PTSUNNY   73  68  83 SW7         N/A
VALPARAISO     RAIN      69  67  93 SW9       29.94R FOG
KNOX*          CLOUDY    70  65  85 W5        29.91R
SOUTH BEND     PTSUNNY   72  66  81 SW7       29.92R
ELKHART*       CLOUDY    72  66  83 W7        29.92R
GOSHEN         CLOUDY    72  66  81 W13       29.92R
MONTICELLO*    CLOUDY    70  67  91 SW12      29.93R
WARSAW*        CLOUDY    70  66  88 W9        29.93R
ANGOLA*        CLOUDY    72  63  73 VRB6      29.91R
FORT WAYNE     CLOUDY    69  66  90 SW10      29.94R
PERU/GRISSOM   CLOUDY    69  69 100 W12       29.95R

$$
INZ028>050-021600-
CENTRAL INDIANA

CITY           SKY/WX    TMP DP  RH WIND       PRES   REMARKS
LAFAYETTE      CLOUDY    69  67  93 SW8       29.95R
KOKOMO*        CLOUDY    70  64  83 W12       29.95R
MUNCIE*        CLOUDY    69  65  86 SW7       29.96R
INDIANAPOLIS   PTSUNNY   70  66  87 SW6       29.96R

$$
MIZ043>046-050>051-056>058-064>065-071>073-077>080-021600-
SOUTHWEST LOWER MICHIGAN

CITY           SKY/WX    TMP DP  RH WIND       PRES   REMARKS
BATTLE CREEK   PTSUNNY   74  62  66 NW5       29.91R
BENTON HARBOR  MOSUNNY   71  64  78 VRB3      29.91R
COLDWATER*     CLOUDY    73  68  84 W7        29.91R
HILLSDALE*     CLOUDY    73  69  89 W5        29.90S
HOLLAND        MOSUNNY   75  63  66 SW5       29.90R
GRAND RAPIDS   MOSUNNY   75  64  68 W6        29.89R
KALAMAZOO      PTSUNNY   74  64  71 NW6       29.90R
STURGIS*         N/A     70  66  88 SW7       29.91R
THREE RIVERS*  PTSUNNY   75  66  75 NW7       29.90R

$$
OHZ001>008-015>018-024>025-021600-
NORTHWEST OHIO

CITY           SKY/WX    TMP DP  RH WIND       PRES   REMARKS
DEFIANCE       CLOUDY    71  65  81 SW8       29.92R
FINDLAY        CLOUDY    72  65  78 SW8       29.93R
TOLEDO EXPRESS CLOUDY    70  67  90 SW5       29.90R
TOLEDO METCALF CLOUDY    73  66  78 SW13      29.91R
LIMA           CLOUDY    72  65  78 SW10      29.95R

$$
&&


USA.gov is the U.S. government's official web portal to all federal, state and local government web resources and services.